TimeMST,TemperatureF,Dew PointF,Humidity,Sea Level PressureIn,VisibilityMPH,Wind Direction,Wind SpeedMPH,Gust SpeedMPH,PrecipitationIn,Events,Conditions,WindDirDegrees,DateUTC
12:15 AM,12.2,10.4,92,30.19,10.0,West,6.9,-,N/A,,Scattered Clouds,270,2013-11-29 07:15:00
12:35 AM,12.2,10.4,92,30.19,10.0,NW,9.2,-,N/A,,Scattered Clouds,310,2013-11-29 07:35:00
12:55 AM,10.4,8.6,92,30.19,10.0,West,6.9,-,N/A,,Scattered Clouds,270,2013-11-29 07:55:00
1:15 AM,10.4,10.4,100,30.19,10.0,NW,4.6,-,N/A,,Scattered Clouds,320,2013-11-29 08:15:00
1:35 AM,12.2,10.4,92,30.19,10.0,WNW,3.5,-,N/A,,Clear,290,2013-11-29 08:35:00
1:55 AM,12.2,10.4,92,30.19,10.0,WNW,4.6,-,N/A,,Clear,290,2013-11-29 08:55:00
2:15 AM,12.2,10.4,92,30.20,10.0,West,4.6,-,N/A,,Clear,280,2013-11-29 09:15:00
2:35 AM,14.0,12.2,93,30.21,10.0,West,8.1,-,N/A,,Scattered Clouds,270,2013-11-29 09:35:00
2:55 AM,12.2,12.2,100,30.21,10.0,West,5.8,-,N/A,,Mostly Cloudy,270,2013-11-29 09:55:00
3:15 AM,12.2,10.4,92,30.20,10.0,WNW,5.8,-,N/A,,Scattered Clouds,300,2013-11-29 10:15:00
3:35 AM,10.4,8.6,92,30.19,10.0,NW,8.1,-,N/A,,Clear,310,2013-11-29 10:35:00
3:55 AM,10.4,8.6,92,30.19,10.0,West,5.8,-,N/A,,Clear,280,2013-11-29 10:55:00
4:15 AM,10.4,10.4,100,30.20,10.0,WNW,3.5,-,N/A,,Clear,290,2013-11-29 11:15:00
4:35 AM,12.2,10.4,92,30.21,10.0,West,3.5,-,N/A,,Clear,270,2013-11-29 11:35:00
4:55 AM,10.4,10.4,100,30.21,10.0,West,5.8,-,N/A,,Scattered Clouds,270,2013-11-29 11:55:00
5:15 AM,12.2,10.4,92,30.21,10.0,West,4.6,-,N/A,,Scattered Clouds,280,2013-11-29 12:15:00
5:35 AM,12.2,10.4,92,30.21,10.0,Calm,Calm,-,N/A,,Clear,0,2013-11-29 12:35:00
5:55 AM,14.0,12.2,93,30.21,10.0,Calm,Calm,-,N/A,,Clear,0,2013-11-29 12:55:00
6:15 AM,8.6,6.8,92,30.22,10.0,Calm,Calm,-,N/A,,Scattered Clouds,0,2013-11-29 13:15:00
6:35 AM,8.6,6.8,92,30.22,10.0,ENE,3.5,-,N/A,,Scattered Clouds,70,2013-11-29 13:35:00
6:55 AM,8.6,8.6,100,30.22,10.0,Calm,Calm,-,N/A,,Clear,0,2013-11-29 13:55:00
7:15 AM,8.6,8.6,100,30.23,10.0,Calm,Calm,-,N/A,,Scattered Clouds,0,2013-11-29 14:15:00
7:35 AM,8.6,6.8,92,30.23,10.0,Calm,Calm,-,N/A,,Scattered Clouds,0,2013-11-29 14:35:00
7:55 AM,5.0,3.2,92,30.24,10.0,WNW,4.6,-,N/A,,Clear,290,2013-11-29 14:55:00
8:15 AM,8.6,6.8,92,30.25,7.0,WNW,4.6,-,N/A,,Clear,290,2013-11-29 15:15:00
8:35 AM,12.2,10.4,92,30.26,10.0,Calm,Calm,-,N/A,,Clear,0,2013-11-29 15:35:00
8:55 AM,14.0,14.0,100,30.26,10.0,WNW,3.5,-,N/A,,Clear,290,2013-11-29 15:55:00
9:15 AM,17.6,14.0,86,30.26,10.0,Calm,Calm,-,N/A,,Clear,0,2013-11-29 16:15:00
9:35 AM,19.4,14.0,80,30.26,10.0,WNW,3.5,-,N/A,,Clear,300,2013-11-29 16:35:00
9:55 AM,21.2,15.8,80,30.27,10.0,Calm,Calm,-,N/A,,Clear,0,2013-11-29 16:55:00
10:15 AM,26.6,17.6,69,30.27,10.0,Calm,Calm,-,N/A,,Clear,0,2013-11-29 17:15:00
10:35 AM,26.6,19.4,74,30.27,10.0,East,4.6,-,N/A,,Clear,90,2013-11-29 17:35:00
10:55 AM,26.6,17.6,69,30.27,10.0,East,5.8,-,N/A,,Clear,100,2013-11-29 17:55:00
11:15 AM,26.6,19.4,74,30.27,10.0,East,4.6,-,N/A,,Clear,100,2013-11-29 18:15:00
11:35 AM,28.4,19.4,69,30.25,10.0,East,5.8,-,N/A,,Clear,90,2013-11-29 18:35:00
11:55 AM,28.4,19.4,69,30.25,10.0,East,5.8,-,N/A,,Clear,80,2013-11-29 18:55:00
12:15 PM,30.2,19.4,64,30.24,10.0,East,3.5,-,N/A,,Clear,100,2013-11-29 19:15:00
12:35 PM,32.0,19.4,60,30.24,10.0,East,4.6,-,N/A,,Clear,90,2013-11-29 19:35:00
12:55 PM,33.8,19.4,56,30.23,10.0,Calm,Calm,-,N/A,,Clear,0,2013-11-29 19:55:00
1:15 PM,37.4,21.2,52,30.22,10.0,Calm,Calm,-,N/A,,Scattered Clouds,0,2013-11-29 20:15:00
1:35 PM,35.6,21.2,56,30.22,10.0,ESE,4.6,-,N/A,,Mostly Cloudy,120,2013-11-29 20:35:00
1:55 PM,35.6,23.0,60,30.22,10.0,East,4.6,-,N/A,,Mostly Cloudy,100,2013-11-29 20:55:00
2:15 PM,35.6,23.0,60,30.21,10.0,ESE,4.6,-,N/A,,Scattered Clouds,110,2013-11-29 21:15:00
2:35 PM,37.4,23.0,56,30.21,10.0,East,4.6,-,N/A,,Mostly Cloudy,80,2013-11-29 21:35:00
2:55 PM,35.6,23.0,60,30.21,10.0,ESE,5.8,-,N/A,,Mostly Cloudy,110,2013-11-29 21:55:00
3:15 PM,35.6,24.8,65,30.21,10.0,ESE,4.6,-,N/A,,Scattered Clouds,110,2013-11-29 22:15:00
3:35 PM,33.8,24.8,70,30.22,10.0,ESE,4.6,-,N/A,,Clear,110,2013-11-29 22:35:00
3:55 PM,33.8,23.0,65,30.21,10.0,ESE,5.8,-,N/A,,Clear,110,2013-11-29 22:55:00
4:15 PM,32.0,23.0,69,30.22,10.0,Calm,Calm,-,N/A,,Clear,0,2013-11-29 23:15:00
4:35 PM,30.2,21.2,69,30.22,10.0,Calm,Calm,-,N/A,,Clear,0,2013-11-29 23:35:00
4:55 PM,30.2,21.2,69,30.23,10.0,Calm,Calm,-,N/A,,Clear,0,2013-11-29 23:55:00
5:15 PM,26.6,19.4,74,30.23,10.0,West,4.6,-,N/A,,Clear,260,2013-11-30 00:15:00
5:35 PM,21.2,17.6,86,30.23,10.0,NNW,4.6,-,N/A,,Clear,330,2013-11-30 00:35:00
5:55 PM,19.4,15.8,86,30.23,10.0,West,3.5,-,N/A,,Clear,260,2013-11-30 00:55:00
6:15 PM,19.4,17.6,93,30.24,10.0,Calm,Calm,-,N/A,,Clear,0,2013-11-30 01:15:00
6:35 PM,21.2,19.4,93,30.24,10.0,Calm,Calm,-,N/A,,Clear,0,2013-11-30 01:35:00
6:55 PM,19.4,17.6,93,30.24,10.0,West,4.6,-,N/A,,Clear,260,2013-11-30 01:55:00
7:15 PM,15.8,14.0,93,30.24,10.0,West,3.5,-,N/A,,Clear,280,2013-11-30 02:15:00
7:35 PM,17.6,14.0,86,30.25,10.0,NNW,3.5,-,N/A,,Clear,340,2013-11-30 02:35:00
7:55 PM,17.6,17.6,100,30.25,10.0,WNW,5.8,-,N/A,,Clear,290,2013-11-30 02:55:00
8:15 PM,12.2,10.4,92,30.25,10.0,West,5.8,-,N/A,,Scattered Clouds,270,2013-11-30 03:15:00
8:35 PM,14.0,12.2,93,30.25,10.0,WNW,5.8,-,N/A,,Scattered Clouds,290,2013-11-30 03:35:00
8:55 PM,12.2,12.2,100,30.25,10.0,NW,5.8,-,N/A,,Clear,320,2013-11-30 03:55:00
9:15 PM,14.0,14.0,100,30.26,10.0,WNW,9.2,-,N/A,,Clear,300,2013-11-30 04:15:00
9:35 PM,12.2,10.4,92,30.26,10.0,NW,8.1,-,N/A,,Clear,310,2013-11-30 04:35:00
9:55 PM,14.0,12.2,93,30.27,10.0,WNW,3.5,-,N/A,,Clear,300,2013-11-30 04:55:00
10:15 PM,10.4,8.6,92,30.27,10.0,WNW,5.8,-,N/A,,Scattered Clouds,290,2013-11-30 05:15:00
10:35 PM,12.2,10.4,92,30.27,10.0,WNW,5.8,-,N/A,,Scattered Clouds,290,2013-11-30 05:35:00
10:55 PM,12.2,12.2,100,30.27,10.0,WNW,5.8,-,N/A,,Clear,290,2013-11-30 05:55:00
11:15 PM,12.2,12.2,100,30.27,10.0,West,4.6,-,N/A,,Clear,280,2013-11-30 06:15:00
11:35 PM,12.2,10.4,92,30.27,10.0,West,6.9,-,N/A,,Clear,270,2013-11-30 06:35:00
11:55 PM,8.6,8.6,100,30.27,10.0,West,8.1,-,N/A,,Clear,270,2013-11-30 06:55:00